Location: PSU-Greenbush Astrophysical Observatory
(37.5140°N, 94.9880°W)
Time: 03:43:03
(UTC-06:00)

deb Explorer IX - Pass Details

Date: 28 January 2020
Orbit: 549 x 1099 km, 38.8° (Epoch: 25 February)

Event Time Altitude Azimuth Distance (km) Brightness Sun altitude
Rises 02:30:08 0° 285° (WNW) 3,907 - -58.0°
Reaches altitude 10° 02:33:07 10° 278° (W) 2,945 - -57.4°
Maximum altitude 02:39:43 38° 213° (SSW) 1,552 - -56.3°
Drops below altitude 10° 02:45:54 10° 147° (SSE) 2,751 - -55.2°
Sets 02:48:36 0° 140° (SE) 3,624 - -54.7°
